Location: Kalwaria Zebrzydowska
(49.8686°N, 19.6647°E)
Time: 01:16:10
(UTC+01:00)

ISS - Pass Details

Date: 29 January 2019
Orbit: 403 x 411 km, 51.6° (Epoch: 22 February)

Event Time Altitude Azimuth Distance (km) Brightness Sun altitude
Rises 18:15:49 0° 264° (W) 2,333 1.8 -17.0°
Reaches altitude 10° 18:17:54 10° 266° (W) 1,475 0.3 -17.3°
Maximum altitude 18:21:12 69° 350° (N) 445 -3.7 -17.8°
Enters shadow 18:21:45 55° 47° (NE) 502 -3.7 -17.9°
